Location: Saluda
(35.2377°N, 82.3468°W)
Time: 15:50:30
(UTC+00:00)

Vanguard 1 - Visible Passes

Search period start: 03 October 2022 00:00
Search period end: 13 October 2022 00:00
Orbit: 649 x 3832 km, 34.2° (Epoch: 03 October)

Date Brightness Start Highest point End Pass type
(mag) Time Alt. Az. Time Alt. Az. Time Alt. Az.
03 Oct 10.8 00:54:15 10° W 01:00:32 33° SSW 01:02:33 25° S visible
04 Oct 11.3 01:15:41 10° W 01:20:47 23° SW 01:22:15 20° SSW visible
05 Oct 11.8 01:37:41 10° WSW 01:40:57 15° SW 01:41:59 14° SSW visible
05 Oct 11.1 23:32:56 10° W 23:42:22 51° SSW 23:47:53 10° SE visible
06 Oct 11.5 23:54:17 10° W 00:02:45 38° SW 00:07:57 10° SSE visible
08 Oct 11.9 00:15:48 10° W 00:22:57 27° SW 00:27:43 10° SSE visible
09 Oct 12.1 00:37:45 10° W 00:43:02 18° SW 00:46:58 10° S visible
10 Oct 12.6 01:01:14 10° WSW 01:03:00 11° SW 01:04:36 10° SW visible
11 Oct 12.3 23:14:57 10° W 23:24:48 32° SW 23:30:49 10° SSE visible
12 Oct 12.5 23:36:54 10° W 23:44:50 23° SW 23:50:12 10° S visible
